YUNHAI 2-1D

导读

YUNHAI 2-1D(云海二号第一批次D星)是中国发射的低轨道航天器,于2018年12月29日成功送入太空。该卫星属于云海系列科研卫星,主要服务于空间环境探测领域,可监测大气电离层变化、空间碎片分布等,获取的数据能为空间物理研究、航天活动安全保障提供有力支撑,是中国航天空间环境监测体系的重要组成部分,推动了我国对近地空间环境的认知与应用发展。

Basic Information
目录编号:
43912
目录名称:
YUNHAI 2-1D
国际标识:
2018-112D
轨道中心:
EARTH
卫星名称:
YUNHAI 2-1D
卫星全名:
--
卫星状态:
在轨 (已飞行2816 天)
发射日期:
2018-12-29 UTC
国别 :
中国 (CN)
星等 :
--
This satellite is enrolled in the Space Conjunction Data Service (SCDS) and the current flight risk assessment level is: No High Risk
Orbit Information
数据来源 国际轨道数据 AOE轨道数据
星历时间 2026-09-14T04:44:53+0800
6小时前
查看轨道信息
2026-09-12T02:00:00+0800
2天前
查看轨道信息
半长轴 7173.012km 7173.01km
偏心率 0.0015794 0.0015613
轨道倾角 50.010° 50.009°
近地点辐角 296.674° 289.643°
升交点赤经 270.993° 279.969°
平近点角 63.256° 344.551°
近地点 783.545km 783.673km
远地点 806.205km 806.073km
周期 100.766分钟 100.765分钟
每日圈数 14.290601 14.290607
Detailed Information
使用方式:
暂无
2D Orbit Map
3D Orbit Map
Orbit Altitude Analysis Chart
Orbit Inclination Analysis Chart
Orbit Comprehensive Analysis Chart
View Comprehensive Chart
Conjunction Data List
Event ID Objects TCA Miss Dist (km) Collision Risk Probability Collision Risk Index (CRI) Action
CDM_260916-013904-391206-129722
2026-09-16T
01:39:51+0000
2.788 km
极远距离
8.023943E-7 极低风险 0.33
Miss Distance Evolution Trend with All Objects Subscribe to Flight Safety Assessment
Collision Probability Evolution Trend with All Objects Subscribe to Flight Safety Assessment